CPA448 YSSY-YMML

Flight info

Callsign CPA448
Flight time 1h 29m
Altitude 34000
Route WOL H65 LEECE Q29 ML
Aircraft B77L/H-SDE2E3FGHIJ4J5M1RWXY/LB1D1

Departure

Time 2026-05-04 10:33
Airport Sydney Kingsford Smith International Airport (YSSY)

Arrival

Time 2026-05-04 12:02
Airport Melbourne Airport (YMML)
Time Latitude Longitude Altitude Speed Heading
2026-05-04 10:05 -33.93860 151.16969 33 ft 0 kts 254°
2026-05-04 10:13 -33.93859 151.16973 34 ft 2 kts 254°
2026-05-04 10:13 -33.93854 151.16991 31 ft 2 kts 254°
2026-05-04 10:13 -33.93850 151.17010 34 ft 2 kts 254°
2026-05-04 10:14 -33.93845 151.17029 34 ft 2 kts 254°
2026-05-04 10:14 -33.93841 151.17048 32 ft 2 kts 229°
2026-05-04 10:16 -33.93816 151.17063 32 ft 0 kts 167°
2026-05-04 10:19 -33.93817 151.17063 34 ft 0 kts 167°
2026-05-04 10:20 -33.93821 151.17064 34 ft 1 kts 167°
2026-05-04 10:20 -33.93831 151.17067 34 ft 2 kts 166°
2026-05-04 10:20 -33.93865 151.17077 34 ft 10 kts 166°
2026-05-04 10:20 -33.93934 151.17098 34 ft 10 kts 161°
2026-05-04 10:21 -33.93977 151.17161 33 ft 10 kts 115°
2026-05-04 10:21 -33.94016 151.17233 33 ft 10 kts 142°
2026-05-04 10:21 -33.94053 151.17247 33 ft 0 kts 169°
2026-05-04 10:21 -33.94056 151.17248 33 ft 0 kts 169°
2026-05-04 10:22 -33.94080 151.17253 33 ft 9 kts 169°
2026-05-04 10:22 -33.94176 151.17274 32 ft 16 kts 169°
2026-05-04 10:22 -33.94280 151.17303 34 ft 15 kts 167°
2026-05-04 10:23 -33.94380 151.17330 34 ft 15 kts 168°
2026-05-04 10:23 -33.94480 151.17355 34 ft 15 kts 168°
2026-05-04 10:25 -33.95244 151.17553 33 ft 17 kts 168°
2026-05-04 10:25 -33.95360 151.17583 33 ft 17 kts 167°
2026-05-04 10:25 -33.95477 151.17615 33 ft 17 kts 168°
2026-05-04 10:25 -33.95593 151.17646 34 ft 17 kts 168°
2026-05-04 10:26 -33.95708 151.17675 34 ft 17 kts 168°
2026-05-04 10:26 -33.95825 151.17704 34 ft 17 kts 168°
2026-05-04 10:26 -33.95943 151.17734 34 ft 17 kts 167°
2026-05-04 10:26 -33.96061 151.17766 34 ft 17 kts 167°
2026-05-04 10:27 -33.96180 151.17798 34 ft 18 kts 167°
2026-05-04 10:27 -33.96301 151.17829 34 ft 18 kts 168°
2026-05-04 10:27 -33.96362 151.17844 34 ft 2 kts 169°
2026-05-04 10:27 -33.96378 151.17848 34 ft 3 kts 169°
2026-05-04 10:28 -33.96396 151.17854 34 ft 3 kts 162°
2026-05-04 10:28 -33.96413 151.17867 34 ft 3 kts 141°
2026-05-04 10:28 -33.96426 151.17885 34 ft 3 kts 126°
2026-05-04 10:28 -33.96433 151.17910 34 ft 3 kts 100°
2026-05-04 10:29 -33.96433 151.17925 34 ft 0 kts 91°
2026-05-04 10:31 -33.96431 151.17955 34 ft 15 kts 83°
2026-05-04 10:31 -33.96378 151.18043 34 ft 12 kts 14°
2026-05-04 10:32 -33.94094 151.17456 41 ft 162 kts 348°
2026-05-04 10:33 -33.92973 151.17138 466 ft 164 kts 347°
2026-05-04 10:33 -33.91914 151.16642 1041 ft 164 kts 335°
2026-05-04 10:33 -33.91010 151.15815 1649 ft 166 kts 315°
2026-05-04 10:33 -33.90390 151.14553 2015 ft 185 kts 302°
2026-05-04 10:34 -33.89709 151.13113 2267 ft 214 kts 303°
2026-05-04 10:34 -33.89013 151.11424 2723 ft 234 kts 297°
2026-05-04 10:34 -33.88439 151.09555 3483 ft 242 kts 292°
2026-05-04 10:34 -33.88022 151.07559 4256 ft 251 kts 285°
2026-05-04 10:35 -33.87691 151.05480 4796 ft 254 kts 288°
2026-05-04 10:35 -33.87218 151.03442 4981 ft 253 kts 291°
2026-05-04 10:35 -33.86783 151.01386 5002 ft 259 kts 284°
2026-05-04 10:35 -33.86650 150.99184 5009 ft 267 kts 275°
2026-05-04 10:36 -33.86560 150.96994 4994 ft 263 kts 286°
2026-05-04 10:36 -33.85835 150.95030 5019 ft 255 kts 308°
2026-05-04 10:36 -33.84747 150.93353 5013 ft 255 kts 312°
2026-05-04 10:36 -33.83601 150.91727 5111 ft 254 kts 313°
2026-05-04 10:37 -33.82448 150.90105 5569 ft 257 kts 313°
2026-05-04 10:37 -33.81280 150.88478 6387 ft 257 kts 311°
2026-05-04 10:37 -33.80088 150.86874 7249 ft 258 kts 313°
2026-05-04 10:37 -33.78880 150.85267 8042 ft 260 kts 313°
2026-05-04 10:39 -33.71296 150.75201 12189 ft 279 kts 321°
2026-05-04 10:39 -33.69552 150.74165 12788 ft 286 kts 345°
2026-05-04 10:39 -33.67544 150.74153 13420 ft 297 kts
2026-05-04 10:40 -33.65640 150.75194 13979 ft 310 kts 32°
2026-05-04 10:40 -33.64179 150.77167 14531 ft 326 kts 54°
2026-05-04 10:40 -33.63421 150.79791 15050 ft 343 kts 77°
2026-05-04 10:40 -33.63506 150.82695 15565 ft 356 kts 97°
2026-05-04 10:41 -33.64093 150.85605 16095 ft 361 kts 102°
2026-05-04 10:41 -33.64772 150.88524 16615 ft 365 kts 102°
2026-05-04 10:41 -33.65467 150.91475 17178 ft 369 kts 102°
2026-05-04 10:41 -33.66170 150.94451 17695 ft 373 kts 103°
2026-05-04 10:42 -33.67168 150.97354 18199 ft 381 kts 119°
2026-05-04 10:42 -33.68845 150.99838 18545 ft 390 kts 141°
2026-05-04 10:42 -33.71207 151.01462 18723 ft 397 kts 165°
2026-05-04 10:42 -33.73914 151.02258 18925 ft 405 kts 174°
2026-05-04 10:43 -33.76743 151.02403 19110 ft 410 kts 191°
2026-05-04 10:44 -33.97253 150.96774 21422 ft 454 kts 199°
2026-05-04 10:45 -34.00330 150.95854 21862 ft 458 kts 199°
2026-05-04 10:45 -34.03434 150.94925 22303 ft 461 kts 200°
2026-05-04 10:45 -34.06559 150.93988 22754 ft 464 kts 200°
2026-05-04 10:45 -34.09708 150.93041 23113 ft 469 kts 200°
2026-05-04 10:46 -34.12883 150.92086 23550 ft 471 kts 200°
2026-05-04 10:46 -34.16073 150.91127 23901 ft 474 kts 200°
2026-05-04 10:46 -34.19277 150.90162 24239 ft 476 kts 200°
2026-05-04 10:46 -34.22503 150.89189 24578 ft 479 kts 200°
2026-05-04 10:47 -34.25742 150.88211 24913 ft 481 kts 200°
2026-05-04 10:47 -34.29001 150.87227 25235 ft 484 kts 200°
2026-05-04 10:47 -34.32284 150.86233 25532 ft 488 kts 200°
2026-05-04 10:47 -34.35585 150.85235 25868 ft 490 kts 200°
2026-05-04 10:49 -34.57726 150.75292 27942 ft 474 kts 231°
2026-05-04 10:49 -34.59975 150.72408 28287 ft 468 kts 237°
2026-05-04 10:50 -34.61994 150.69331 28583 ft 466 kts 240°
2026-05-04 10:51 -34.75117 150.46988 31076 ft 459 kts 242°
2026-05-04 10:52 -34.76992 150.43864 31468 ft 456 kts 242°
2026-05-04 10:52 -34.78859 150.40754 31815 ft 454 kts 242°
2026-05-04 10:52 -34.80715 150.37659 32144 ft 452 kts 242°
2026-05-04 10:54 -34.93523 150.16159 31510 ft 440 kts 242°
2026-05-04 10:54 -34.95282 150.13202 31385 ft 434 kts 242°
2026-05-04 10:56 -35.07192 149.93091 30750 ft 403 kts 243°
2026-05-04 10:56 -35.08824 149.90323 30681 ft 400 kts 243°
2026-05-04 10:57 -35.12037 149.84860 30606 ft 392 kts 244°
2026-05-04 10:57 -35.15193 149.79486 30477 ft 386 kts 244°
2026-05-04 10:58 -35.18301 149.74184 30369 ft 381 kts 244°
2026-05-04 10:58 -35.21370 149.68947 30301 ft 376 kts 244°
2026-05-04 10:59 -35.24400 149.63769 30222 ft 372 kts 245°
2026-05-04 10:59 -35.27394 149.58647 30215 ft 368 kts 245°
2026-05-04 11:00 -35.30355 149.53574 30150 ft 364 kts 245°
2026-05-04 11:01 -35.40986 149.35242 30729 ft 396 kts 244°
2026-05-04 11:02 -35.42592 149.32475 30860 ft 401 kts 244°
2026-05-04 11:02 -35.44220 149.29667 30962 ft 407 kts 244°
2026-05-04 11:05 -35.68814 148.86994 32091 ft 454 kts 244°
2026-05-04 11:06 -35.72449 148.80647 32097 ft 454 kts 244°
2026-05-04 11:06 -35.76082 148.74277 32098 ft 456 kts 244°
2026-05-04 11:10 -36.01775 148.28817 32092 ft 475 kts 243°
2026-05-04 11:12 -36.16810 148.01934 32088 ft 474 kts 243°
2026-05-04 11:12 -36.18677 147.98596 31909 ft 469 kts 243°
2026-05-04 11:12 -36.20533 147.95276 31145 ft 470 kts 243°
2026-05-04 11:13 -36.22393 147.91933 30521 ft 473 kts 243°
2026-05-04 11:13 -36.24266 147.88561 30170 ft 478 kts 243°
2026-05-04 11:13 -36.28053 147.81740 30093 ft 482 kts 243°
2026-05-04 11:14 -36.31833 147.74934 30082 ft 483 kts 243°
2026-05-04 11:16 -36.47007 147.47391 30069 ft 484 kts 243°
2026-05-04 11:16 -36.50156 147.41646 30061 ft 484 kts 244°
2026-05-04 11:17 -36.53939 147.34732 30085 ft 483 kts 244°
2026-05-04 11:19 -36.69031 147.07002 30057 ft 483 kts 244°
2026-05-04 11:19 -36.72789 147.00076 30058 ft 482 kts 244°
2026-05-04 11:20 -36.76539 146.93133 30055 ft 482 kts 244°
2026-05-04 11:20 -36.80275 146.86190 30060 ft 482 kts 244°
2026-05-04 11:22 -36.95147 146.58460 30044 ft 481 kts 245°
2026-05-04 11:23 -36.98885 146.51458 30043 ft 481 kts 245°
2026-05-04 11:24 -37.10408 146.30863 30049 ft 496 kts 234°
2026-05-04 11:25 -37.13023 146.28038 30025 ft 497 kts 225°
2026-05-04 11:25 -37.15993 146.25805 30029 ft 502 kts 214°
2026-05-04 11:25 -37.19365 146.24283 30020 ft 516 kts 201°
2026-05-04 11:26 -37.26597 146.23774 30011 ft 532 kts 177°
2026-05-04 11:27 -37.37538 146.45228 29997 ft 405 kts 48°
2026-05-04 11:28 -37.35852 146.47811 30016 ft 363 kts 27°
2026-05-04 11:28 -37.33811 146.49422 30008 ft 336 kts 13°
2026-05-04 11:28 -37.29565 146.51846 29980 ft 350 kts 25°
2026-05-04 11:29 -37.27684 146.53882 30003 ft 361 kts 31°
2026-05-04 11:29 -37.25869 146.56082 30006 ft 364 kts 32°
2026-05-04 11:29 -37.22310 146.60655 30008 ft 372 kts 38°
2026-05-04 11:31 -37.08015 146.68589 30027 ft 321 kts 342°
2026-05-04 11:33 -36.99428 146.54808 30044 ft 326 kts 276°
2026-05-04 11:33 -37.00339 146.49117 30047 ft 347 kts 258°
2026-05-04 11:34 -37.02752 146.43738 30041 ft 360 kts 248°
2026-05-04 11:34 -37.05598 146.38541 30076 ft 362 kts 246°
2026-05-04 11:35 -37.08653 146.33415 30029 ft 373 kts 239°
2026-05-04 11:35 -37.10581 146.31166 30051 ft 386 kts 229°
2026-05-04 11:35 -37.12850 146.29356 30034 ft 399 kts 217°
2026-05-04 11:36 -37.15531 146.28130 30029 ft 413 kts 202°
2026-05-04 11:36 -37.18436 146.27772 30023 ft 428 kts 185°
2026-05-04 11:36 -37.21406 146.28423 30026 ft 441 kts 167°
2026-05-04 11:36 -37.24213 146.30105 30044 ft 456 kts 149°
2026-05-04 11:37 -37.26747 146.32512 30011 ft 458 kts 136°
2026-05-04 11:37 -37.28728 146.35607 30017 ft 454 kts 115°
2026-05-04 11:37 -37.29882 146.39237 30025 ft 443 kts 96°
2026-05-04 11:37 -37.30239 146.43012 30015 ft 430 kts 80°
2026-05-04 11:38 -37.29888 146.46677 30015 ft 416 kts 66°
2026-05-04 11:38 -37.28983 146.50007 29986 ft 402 kts 53°
2026-05-04 11:38 -37.26131 146.55943 30015 ft 388 kts 40°
2026-05-04 11:39 -37.24359 146.58429 30021 ft 375 kts 31°
2026-05-04 11:39 -37.22340 146.60397 30015 ft 361 kts 20°
2026-05-04 11:40 -37.09240 146.60510 30043 ft 316 kts 329°
2026-05-04 11:41 -37.07337 146.59082 30038 ft 323 kts 322°
2026-05-04 11:41 -37.04158 146.54948 30035 ft 341 kts 304°
2026-05-04 11:41 -37.03064 146.52260 30033 ft 354 kts 294°
2026-05-04 11:42 -37.02317 146.49268 30041 ft 366 kts 289°
2026-05-04 11:42 -37.01796 146.46139 30043 ft 379 kts 283°
2026-05-04 11:42 -37.01610 146.42749 30040 ft 394 kts 275°
2026-05-04 11:42 -37.01899 146.39268 30042 ft 412 kts 266°
2026-05-04 11:43 -37.02737 146.35808 30032 ft 432 kts 255°
2026-05-04 11:43 -37.04261 146.32450 30074 ft 454 kts 244°
2026-05-04 11:43 -37.06159 146.29221 30041 ft 466 kts 241°
2026-05-04 11:44 -37.10081 146.22728 30035 ft 466 kts 242°
2026-05-04 11:44 -37.13957 146.16242 30038 ft 464 kts 242°
2026-05-04 11:45 -37.17827 146.09758 30045 ft 465 kts 241°
2026-05-04 11:45 -37.21687 146.03286 29547 ft 460 kts 240°
2026-05-04 11:45 -37.23597 146.00079 28803 ft 459 kts 240°
2026-05-04 11:46 -37.25507 145.96866 27983 ft 459 kts 239°
2026-05-04 11:46 -37.27404 145.93677 26782 ft 451 kts 239°
2026-05-04 11:46 -37.29260 145.90556 25197 ft 443 kts 238°
2026-05-04 11:46 -37.31090 145.87470 23631 ft 437 kts 236°
2026-05-04 11:47 -37.32895 145.84437 22326 ft 425 kts 236°
2026-05-04 11:47 -37.34649 145.81511 21559 ft 418 kts 236°
2026-05-04 11:47 -37.36396 145.78597 20904 ft 417 kts 236°
2026-05-04 11:47 -37.38134 145.75689 20284 ft 415 kts 236°
2026-05-04 11:48 -37.39868 145.72790 19662 ft 414 kts 236°
2026-05-04 11:48 -37.41594 145.69905 19102 ft 411 kts 236°
2026-05-04 11:48 -37.43303 145.67048 18587 ft 407 kts 236°
2026-05-04 11:48 -37.44998 145.64218 18061 ft 403 kts 236°
2026-05-04 11:49 -37.46679 145.61416 17488 ft 399 kts 236°
2026-05-04 11:49 -37.48341 145.58646 16983 ft 395 kts 236°
2026-05-04 11:49 -37.49987 145.55905 16485 ft 390 kts 236°
2026-05-04 11:49 -37.51614 145.53199 16012 ft 385 kts 236°
2026-05-04 11:50 -37.53221 145.50526 15587 ft 380 kts 236°
2026-05-04 11:50 -37.54733 145.47845 15284 ft 370 kts 239°
2026-05-04 11:50 -37.56123 145.45171 15093 ft 359 kts 240°
2026-05-04 11:50 -37.57503 145.42605 14807 ft 352 kts 238°
2026-05-04 11:51 -37.58911 145.40077 14361 ft 350 kts 238°
2026-05-04 11:51 -37.60324 145.37584 13953 ft 348 kts 238°
2026-05-04 11:51 -37.61733 145.35121 13635 ft 342 kts 237°
2026-05-04 11:51 -37.63106 145.32731 13461 ft 330 kts 238°
2026-05-04 11:52 -37.64422 145.30447 13218 ft 315 kts 238°
2026-05-04 11:52 -37.65711 145.28208 12661 ft 319 kts 238°
2026-05-04 11:52 -37.67033 145.25900 11843 ft 330 kts 237°
2026-05-04 11:52 -37.68399 145.23520 11051 ft 339 kts 237°
2026-05-04 11:53 -37.69798 145.21088 10391 ft 344 kts 237°
2026-05-04 11:53 -37.71207 145.18646 9808 ft 344 kts 237°
2026-05-04 11:53 -37.72606 145.16214 9157 ft 339 kts 237°
2026-05-04 11:53 -37.73973 145.13838 7987 ft 330 kts 237°
2026-05-04 11:55 -37.81634 144.99475 3966 ft 220 kts 258°
2026-05-04 11:55 -37.81968 144.97622 3852 ft 212 kts 259°
2026-05-04 11:56 -37.82270 144.95838 3738 ft 202 kts 260°
2026-05-04 11:56 -37.82558 144.94160 3591 ft 188 kts 259°
2026-05-04 11:56 -37.82790 144.92603 3436 ft 172 kts 263°
2026-05-04 11:56 -37.82953 144.91156 3122 ft 162 kts 264°
2026-05-04 11:57 -37.83103 144.89791 2851 ft 152 kts 264°
2026-05-04 11:57 -37.83093 144.88444 2663 ft 155 kts 281°
2026-05-04 11:57 -37.82613 144.87277 2544 ft 153 kts 307°
2026-05-04 11:57 -37.81667 144.86526 2484 ft 170 kts 334°
2026-05-04 11:58 -37.80522 144.86247 2434 ft 161 kts 342°
2026-05-04 11:58 -37.79441 144.86084 2176 ft 153 kts 342°
2026-05-04 11:58 -37.78423 144.85922 1949 ft 142 kts 342°
2026-05-04 11:58 -37.77455 144.85753 1782 ft 141 kts 341°
2026-05-04 11:59 -37.76488 144.85574 1594 ft 141 kts 342°
2026-05-04 11:59 -37.75515 144.85395 1412 ft 141 kts 343°
2026-05-04 11:59 -37.74548 144.85221 1206 ft 140 kts 345°
2026-05-04 11:59 -37.73596 144.85046 1030 ft 137 kts 351°
2026-05-04 12:00 -37.72662 144.84871 850 ft 134 kts 352°
2026-05-04 12:00 -37.72042 144.84754 744 ft 134 kts 351°
2026-05-04 12:00 -37.70832 144.84531 656 ft 134 kts 351°
2026-05-04 12:00 -37.69914 144.84345 582 ft 134 kts 351°
2026-05-04 12:01 -37.69294 144.84231 488 ft 136 kts 352°
2026-05-04 12:01 -37.68383 144.84062 371 ft 129 kts 351°
2026-05-04 12:02 -37.66784 144.83940 392 ft 15 kts 22°
2026-05-04 12:03 -37.66716 144.84065 395 ft 18 kts 88°
2026-05-04 12:03 -37.66763 144.84191 396 ft 16 kts 116°
2026-05-04 12:03 -37.66765 144.84302 394 ft 7 kts 82°
2026-05-04 12:03 -37.66764 144.84318 394 ft 0 kts 81°